Location: Neuvy Saint Sepulchre
(46.5953°N, 1.8122°E)
Time: 09:16:47
(UTC+02:00)

ISS - Pass Details

Date: 19 March 2024
Orbit: 413 x 419 km, 51.6° (Epoch: 13 April)

Event Time Altitude Azimuth Distance (km) Brightness Sun altitude
Rises 20:32:22 0° 269° (W) 2,360 1.5 -15.7°
Reaches altitude 10° 20:34:33 10° 277° (W) 1,500 0.3 -16.0°
Maximum altitude 20:37:45 39° 348° (NNW) 646 -2.6 -16.6°
Enters shadow 20:39:26 22° 45° (NE) 967 -2.2 -16.8°
